Location: Beetenbrück
(52.8113°N, 9.5946°E)
Time: 21:39:24
(UTC+00:00)

Cosmos 2219 Rocket - Pass Details

Date: 14 April 2026
Orbit: 826 x 845 km, 71.0° (Epoch: 12 May)

Event Time Altitude Azimuth Distance (km) Brightness Sun altitude
Rises 20:07:50 0° 239° (WSW) 3,360 5.6 -15.2°
Reaches altitude 10° 20:10:27 10° 248° (WSW) 2,431 4.9 -15.5°
Maximum altitude 20:15:35 37° 315° (NW) 1,276 3.8 -16.0°
Drops below altitude 10° 20:20:46 10° 23° (NNE) 2,449 4.9 -16.6°
Sets 20:23:25 0° 31° (NNE) 3,389 5.5 -16.9°
